�������l�o���
Date,Time,MP-1(��Sv/h),MP-2(��Sv/h),MP-3(��Sv/h),MP-4(��Sv/h),MP-5(��Sv/h),MP-6(��Sv/h),MP-7(��Sv/h),MP-8(��Sv/h),����,����(m/s),���J
2017/04/01,00:00,0.981,1.585,1.074,1.885,1.290,0.529,0.981,0.914,�k�k��,3.5,�L
2017/04/01,00:10,0.980,1.587,1.073,1.889,1.286,0.531,0.980,0.914,�k��,3.4,�L
2017/04/01,00:20,0.982,1.583,1.073,1.883,1.286,0.531,0.979,0.916,�k��,2.8,�L
2017/04/01,00:30,0.982,1.586,1.074,1.886,1.288,0.530,0.978,0.913,�k��,3.1,�L
2017/04/01,00:40,0.982,1.585,1.072,1.884,1.285,0.531,0.979,0.912,�k��,3.4,�L
2017/04/01,00:50,0.980,1.583,1.075,1.882,1.284,0.533,0.978,0.915,�k�k��,3.6,�L
2017/04/01,01:00,0.977,1.575,1.071,1.884,1.283,0.530,0.980,0.912,�k�k��,3.0,�L
2017/04/01,01:10,0.975,1.573,1.066,1.879,1.277,0.531,0.977,0.912,�k��,2.8,�L
2017/04/01,01:20,0.975,1.574,1.068,1.874,1.274,0.530,0.979,0.911,�k��,2.2,�L
2017/04/01,01:30,0.978,1.580,1.069,1.876,1.275,0.531,0.978,0.913,�k��,3.3,�L
2017/04/01,01:40,0.978,1.579,1.070,1.877,1.279,0.531,0.979,0.911,���k��,2.9,�L
2017/04/01,01:50,0.980,1.579,1.070,1.883,1.279,0.530,0.979,0.911,�k��,2.5,�L
2017/04/01,02:00,0.976,1.581,1.072,1.882,1.280,0.532,0.979,0.913,���k��,3.3,�L
2017/04/01,02:10,0.976,1.580,1.071,1.884,1.282,0.531,0.979,0.910,���k��,2.5,�L
2017/04/01,02:20,0.977,1.574,1.071,1.879,1.282,0.530,0.976,0.910,���k��,1.9,�L
2017/04/01,02:30,0.974,1.576,1.069,1.875,1.274,0.531,0.976,0.908,���k��,1.7,�L
2017/04/01,02:40,0.978,1.576,1.068,1.877,1.277,0.530,0.977,0.910,��,1.5,�L
2017/04/01,02:50,0.978,1.576,1.071,1.880,1.279,0.531,0.977,0.910,���쐼,1.7,�L
2017/04/01,03:00,0.977,1.578,1.070,1.879,1.277,0.530,0.977,0.911,���k��,1.2,�L
2017/04/01,03:10,0.978,1.577,1.069,1.880,1.280,0.531,0.976,0.911,�k��,1.4,�L
2017/04/01,03:20,0.977,1.580,1.072,1.882,1.281,0.531,0.978,0.911,���k��,2.0,�L
2017/04/01,03:30,0.979,1.582,1.069,1.884,1.284,0.529,0.976,0.909,�k��,2.5,�L
2017/04/01,03:40,0.981,1.581,1.073,1.883,1.282,0.528,0.979,0.910,���k��,2.8,�L
2017/04/01,03:50,0.981,1.581,1.070,1.886,1.286,0.530,0.976,0.912,���k��,3.0,�L
2017/04/01,04:00,0.981,1.583,1.072,1.889,1.286,0.530,0.975,0.913,���k��,2.8,�L
2017/04/01,04:10,0.978,1.584,1.072,1.888,1.285,0.531,0.977,0.910,���k��,2.6,�L
2017/04/01,04:20,0.979,1.583,1.073,1.888,1.287,0.531,0.977,0.912,���k��,3.2,�L
2017/04/01,04:30,0.979,1.585,1.072,1.889,1.286,0.532,0.978,0.911,�k��,3.4,�L
2017/04/01,04:40,0.979,1.587,1.071,1.892,1.288,0.531,0.977,0.911,�k��,3.4,�L
2017/04/01,04:50,0.981,1.585,1.072,1.888,1.288,0.529,0.976,0.911,�k��,2.6,�L
2017/04/01,05:00,0.978,1.588,1.072,1.887,1.287,0.531,0.977,0.910,�k�k��,3.9,�L
2017/04/01,05:10,0.981,1.588,1.074,1.890,1.292,0.531,0.978,0.912,�k�k��,5.5,�L
2017/04/01,05:20,0.979,1.587,1.072,1.892,1.289,0.530,0.977,0.911,�k��,5.0,�L
2017/04/01,05:30,0.977,1.585,1.071,1.891,1.289,0.531,0.980,0.911,�k�k��,4.7,�L
2017/04/01,05:40,0.980,1.585,1.070,1.892,1.289,0.530,0.978,0.912,�k��,5.1,�L
2017/04/01,05:50,0.980,1.584,1.072,1.889,1.289,0.530,0.979,0.911,�k��,4.9,�L
2017/04/01,06:00,0.978,1.585,1.071,1.892,1.289,0.530,0.978,0.910,�k��,4.0,�L
2017/04/01,06:10,0.981,1.588,1.073,1.890,1.290,0.531,0.979,0.913,�k�k��,4.1,�L
2017/04/01,06:20,0.981,1.587,1.072,1.894,1.292,0.532,0.977,0.911,�k�k��,3.2,�L
2017/04/01,06:30,0.980,1.586,1.072,1.895,1.292,0.531,0.979,0.911,�k�k��,3.4,�L
2017/04/01,06:40,0.979,1.588,1.073,1.891,1.289,0.531,0.979,0.912,�k�k��,4.6,�L
2017/04/01,06:50,0.980,1.587,1.073,1.895,1.292,0.531,0.978,0.913,�k�k��,4.6,�L
2017/04/01,07:00,0.980,1.590,1.073,1.893,1.292,0.531,0.978,0.914,�k�k��,4.4,�L
2017/04/01,07:10,0.982,1.590,1.075,1.896,1.294,0.530,0.980,0.912,�k�k��,5.0,�L
2017/04/01,07:20,0.980,1.589,1.074,1.894,1.294,0.531,0.979,0.912,�k�k��,4.4,�L
2017/04/01,07:30,0.981,1.589,1.075,1.896,1.295,0.530,0.981,0.913,�k�k��,3.5,�L
2017/04/01,07:40,0.981,1.591,1.075,1.896,1.295,0.530,0.980,0.911,�k�k��,4.1,�L
2017/04/01,07:50,0.981,1.591,1.070,1.896,1.294,0.531,0.981,0.913,�k�k��,3.9,�L
2017/04/01,08:00,0.983,1.592,1.073,1.897,1.295,0.532,0.981,0.911,�k�k��,3.5,�L
2017/04/01,08:10,0.984,1.591,1.070,1.896,1.297,0.531,0.980,0.913,�k�k��,4.7,�L
2017/04/01,08:20,0.983,1.590,1.069,1.898,1.294,0.533,0.981,0.914,�k�k��,5.0,��
2017/04/01,08:30,0.983,1.592,1.072,1.898,1.296,0.532,0.979,0.914,�k�k��,4.9,�L
2017/04/01,08:40,0.981,1.590,1.074,1.897,1.295,0.532,0.983,0.913,�k�k��,4.1,�L
2017/04/01,08:50,0.983,1.590,1.077,1.901,1.296,0.533,0.983,0.913,�k�k��,3.5,�L
2017/04/01,09:00,0.983,1.594,1.078,1.899,1.298,0.533,0.982,0.914,�k�k��,3.7,��
2017/04/01,09:10,0.984,1.592,1.077,1.899,1.299,0.533,0.982,0.913,�k�k��,3.8,��
2017/04/01,09:20,0.982,1.594,1.078,1.902,1.299,0.532,0.983,0.915,�k�k��,3.5,��
2017/04/01,09:30,0.986,1.596,1.078,1.902,1.300,0.532,0.982,0.914,�k,3.3,��
2017/04/01,09:40,0.986,1.597,1.079,1.903,1.300,0.533,0.982,0.915,�k,3.7,��
2017/04/01,09:50,0.987,1.596,1.080,1.901,1.300,0.532,0.981,0.914,�k,3.7,��
2017/04/01,10:00,0.986,1.600,1.080,1.903,1.301,0.532,0.982,0.915,�k,3.2,��
2017/04/01,10:10,0.986,1.600,1.080,1.904,1.300,0.532,0.979,0.916,�k�k��,3.9,��
2017/04/01,10:20,0.984,1.598,1.080,1.906,1.303,0.533,0.982,0.915,�k,3.3,��
2017/04/01,10:30,0.987,1.603,1.079,1.906,1.303,0.533,0.982,0.916,�k�k��,3.4,��
2017/04/01,10:40,0.988,1.601,1.080,1.907,1.306,0.533,0.982,0.916,�k�k��,4.2,��
2017/04/01,10:50,0.991,1.602,1.080,1.908,1.304,0.533,0.981,0.916,�k�k��,3.7,��
2017/04/01,11:00,0.989,1.602,1.081,1.904,1.303,0.532,0.980,0.916,�k,4.1,��
2017/04/01,11:10,0.989,1.599,1.083,1.905,1.309,0.534,0.982,0.918,�k�k��,3.5,��
2017/04/01,11:20,0.990,1.604,1.082,1.909,1.308,0.533,0.984,0.916,�k,3.3,��
2017/04/01,11:30,0.991,1.605,1.082,1.907,1.308,0.533,0.983,0.917,�k�k��,3.3,��
2017/04/01,11:40,0.988,1.604,1.083,1.909,1.308,0.535,0.983,0.919,�k�k��,4.0,��
2017/04/01,11:50,0.989,1.605,1.083,1.909,1.307,0.532,0.981,0.918,�k�k��,3.3,��
2017/04/01,12:00,0.988,1.604,1.083,1.908,1.308,0.534,0.982,0.919,�k��,4.4,��
2017/04/01,12:10,0.990,1.604,1.084,1.909,1.308,0.532,0.983,0.919,�k,4.2,��
2017/04/01,12:20,0.993,1.604,1.082,1.910,1.307,0.535,0.984,0.919,�k�k��,3.6,��
2017/04/01,12:30,0.990,1.606,1.079,1.910,1.307,0.533,0.982,0.917,�k�k��,4.0,�L
2017/04/01,12:40,0.989,1.602,1.085,1.907,1.308,0.533,0.983,0.919,�k�k��,3.8,�L
2017/04/01,12:50,0.989,1.601,1.082,1.908,1.308,0.532,0.981,0.917,�k�k��,3.0,�L
2017/04/01,13:00,0.988,1.604,1.082,1.907,1.305,0.533,0.984,0.919,�k�k��,2.6,�L
2017/04/01,13:10,0.992,1.601,1.080,1.907,1.303,0.534,0.981,0.917,�k,2.3,�L
2017/04/01,13:20,0.989,1.602,1.081,1.907,1.305,0.534,0.983,0.916,�k��,2.5,�L
2017/04/01,13:30,0.991,1.603,1.079,1.907,1.306,0.534,0.983,0.918,�k��,3.7,�L
2017/04/01,13:40,0.989,1.601,1.083,1.911,1.303,0.535,0.982,0.918,�k��,4.5,�L
2017/04/01,13:50,0.988,1.601,1.077,1.909,1.304,0.534,0.986,0.917,�k��,5.5,�L
2017/04/01,14:00,0.990,1.601,1.082,1.908,1.304,0.533,0.985,0.918,�k��,5.0,�L
2017/04/01,14:10,0.989,1.598,1.086,1.910,1.305,0.533,0.988,0.914,�k��,5.4,�L
2017/04/01,14:20,0.991,1.602,1.082,1.911,1.306,0.535,0.986,0.916,�k�k��,5.5,��
2017/04/01,14:30,0.990,1.602,1.085,1.911,1.305,0.534,0.986,0.917,�k��,5.1,��
2017/04/01,14:40,0.992,1.603,1.080,1.908,1.307,0.535,0.985,0.917,�k��,5.5,��
2017/04/01,14:50,0.990,1.607,1.085,1.912,1.306,0.534,0.987,0.917,�k�k��,4.9,��
2017/04/01,15:00,0.991,1.607,1.085,1.910,1.307,0.533,0.987,0.918,�k�k��,5.1,��
2017/04/01,15:10,0.991,1.605,1.087,1.913,1.307,0.534,0.986,0.919,�k�k��,5.3,��
2017/04/01,15:20,0.992,1.604,1.087,1.912,1.309,0.534,0.984,0.920,�k�k��,4.7,��
2017/04/01,15:30,0.992,1.606,1.086,1.913,1.305,0.534,0.983,0.919,�k�k��,4.5,��
2017/04/01,15:40,0.992,1.609,1.086,1.914,1.309,0.534,0.985,0.918,�k�k��,5.2,��
2017/04/01,15:50,0.994,1.605,1.087,1.915,1.308,0.534,0.984,0.918,�k�k��,5.0,��
2017/04/01,16:00,0.992,1.607,1.085,1.915,1.309,0.533,0.985,0.918,�k�k��,4.2,��
2017/04/01,16:10,0.993,1.610,1.086,1.916,1.309,0.535,0.986,0.918,�k��,4.5,��
2017/04/01,16:20,0.994,1.609,1.087,1.914,1.313,0.535,0.984,0.919,�k��,4.6,��
2017/04/01,16:30,0.994,1.608,1.089,1.913,1.314,0.536,0.986,0.918,�k��,4.3,��
2017/04/01,16:40,0.995,1.609,1.087,1.913,1.311,0.535,0.985,0.919,�k��,4.1,��
2017/04/01,16:50,0.992,1.609,1.087,1.913,1.310,0.536,0.986,0.918,�k��,4.0,��
2017/04/01,17:00,0.993,1.606,1.088,1.914,1.311,0.535,0.986,0.918,�k��,4.2,��
2017/04/01,17:10,0.993,1.610,1.087,1.914,1.312,0.535,0.988,0.920,�k��,5.0,��
2017/04/01,17:20,0.993,1.608,1.088,1.914,1.313,0.535,0.988,0.918,�k��,4.7,��
2017/04/01,17:30,0.995,1.609,1.087,1.915,1.311,0.535,0.985,0.919,�k��,4.8,��
2017/04/01,17:40,0.993,1.609,1.088,1.915,1.312,0.537,0.989,0.918,�k��,4.5,��
2017/04/01,17:50,0.994,1.611,1.087,1.914,1.315,0.536,0.987,0.919,�k��,4.5,��
2017/04/01,18:00,0.994,1.605,1.086,1.914,1.314,0.535,0.987,0.919,�k��,4.5,��
2017/04/01,18:10,0.993,1.610,1.089,1.916,1.311,0.534,0.987,0.918,���k��,5.4,��
2017/04/01,18:20,0.993,1.610,1.088,1.915,1.312,0.534,0.987,0.918,�k��,4.7,��
2017/04/01,18:30,0.993,1.609,1.088,1.916,1.312,0.536,0.987,0.920,�k��,3.9,��
2017/04/01,18:40,0.992,1.608,1.087,1.918,1.313,0.535,0.989,0.919,�k��,4.2,��
2017/04/01,18:50,0.994,1.608,1.088,1.915,1.313,0.534,0.989,0.919,�k��,4.6,��
2017/04/01,19:00,0.994,1.609,1.089,1.918,1.311,0.536,0.987,0.919,�k��,4.6,��
2017/04/01,19:10,0.994,1.610,1.089,1.917,1.313,0.534,0.988,0.917,�k��,4.5,��
2017/04/01,19:20,0.993,1.611,1.088,1.916,1.314,0.535,0.988,0.918,�k��,4.4,��
2017/04/01,19:30,0.993,1.612,1.088,1.913,1.313,0.535,0.986,0.919,�k��,3.7,��
2017/04/01,19:40,0.995,1.610,1.085,1.917,1.313,0.534,0.987,0.919,�k��,4.3,��
2017/04/01,19:50,0.993,1.612,1.089,1.917,1.313,0.536,0.985,0.919,�k��,4.3,��
2017/04/01,20:00,0.994,1.612,1.090,1.916,1.312,0.535,0.988,0.918,�k��,3.4,��
2017/04/01,20:10,0.992,1.611,1.089,1.917,1.314,0.535,0.989,0.919,�k��,3.5,��
2017/04/01,20:20,0.993,1.610,1.088,1.917,1.314,0.536,0.986,0.918,�k��,3.7,��
2017/04/01,20:30,0.992,1.611,1.087,1.917,1.312,0.535,0.987,0.919,�k��,2.2,��
2017/04/01,20:40,0.992,1.613,1.085,1.917,1.315,0.536,0.988,0.919,�k�k��,0.9,��
2017/04/01,20:50,0.993,1.611,1.087,1.918,1.313,0.536,0.989,0.918,�k�k��,1.7,��
2017/04/01,21:00,0.992,1.614,1.087,1.917,1.313,0.535,0.987,0.918,�k�k��,1.4,��
2017/04/01,21:10,0.994,1.611,1.087,1.920,1.315,0.534,0.988,0.919,�k�k��,1.5,�L
2017/04/01,21:20,0.993,1.610,1.089,1.917,1.314,0.536,0.989,0.919,�k�k��,1.9,�L
2017/04/01,21:30,0.992,1.611,1.090,1.918,1.315,0.537,0.986,0.917,�k��,1.7,�L
2017/04/01,21:40,0.992,1.610,1.090,1.918,1.314,0.536,0.987,0.918,�k�k��,2.6,�L
2017/04/01,21:50,0.992,1.612,1.087,1.919,1.314,0.534,0.987,0.920,�k,1.7,�L
2017/04/01,22:00,0.993,1.611,1.087,1.915,1.316,0.535,0.988,0.917,�k,2.3,�L
2017/04/01,22:10,0.992,1.611,1.090,1.916,1.314,0.534,0.986,0.918,�k,2.3,�L
2017/04/01,22:20,0.991,1.610,1.089,1.916,1.314,0.535,0.988,0.917,�k,1.5,�L
2017/04/01,22:30,0.990,1.609,1.087,1.919,1.316,0.535,0.986,0.919,�k�k��,1.4,�L
2017/04/01,22:40,0.989,1.608,1.087,1.916,1.312,0.538,0.985,0.918,�k�k��,1.2,�L
2017/04/01,22:50,0.990,1.609,1.089,1.917,1.312,0.534,0.987,0.917,�k�k��,0.9,�L
2017/04/01,23:00,0.992,1.605,1.088,1.918,1.312,0.536,0.988,0.918,�k�k��,1.5,�L
2017/04/01,23:10,0.989,1.607,1.089,1.918,1.312,0.535,0.986,0.920,�k�k��,2.0,�L
2017/04/01,23:20,0.988,1.608,1.088,1.918,1.313,0.536,0.987,0.918,�k,1.5,�L
2017/04/01,23:30,0.989,1.608,1.087,1.916,1.315,0.536,0.986,0.919,�k�k��,1.5,��
2017/04/01,23:40,0.987,1.604,1.086,1.917,1.313,0.536,0.985,0.918,�k�k��,1.7,�L
2017/04/01,23:50,0.991,1.610,1.085,1.917,1.313,0.536,0.987,0.920,�k�k��,1.7,�L
